Weather History for Moffett NAS, CA

Change the Weather History Date:

Wednesday, July 11, 2012

  Actual Average Record
Temperature  
Mean Temperature 70 °F 68 °F  
Max Temperature 82 °F 77 °F 93 °F (1983)
Min Temperature 58 °F 59 °F 46 °F (1974)
Degree Days  
Heating Degree Days 0    
Month to date heating degree days 6  
Since 1 June heating degree days 47  
Since 1 July heating degree days 6  
Cooling Degree Days 5    
Month to date cooling degree days 19  
Year to date cooling degree days 117  
Since 1 June cooling degree days 74  
Growing Degree Days 19 (Base 50)    
Moisture  
Dew Point 56 °F    
Average Humidity 63    
Maximum Humidity 84    
Minimum Humidity 42    
Precipitation  
Precipitation 0.00 in 0.00 in 0.00 in (2014)
Month to date precipitation 0.00 0.01  
Year to date precipitation 5.51 9.64  
Since 1 July precipitation 0.00 0.01  
Sea Level Pressure  
Sea Level Pressure 29.87 in    
Wind  
Wind Speed 5 mph (NNW)    
Max Wind Speed 13 mph    
Max Gust Speed 16 mph    
Visibility 10 miles    
Events      
T = Trace of Precipitation, MM = Missing Value Source: NWS Daily Summary

Daily Weather History Graph

Daily Weather History Graph

Search for Another Location

Airport:

Trip Planner

Search our weather history database for the weather conditions in past years. The results will help you decide how hot, cold, wet, or windy it might be!

Date:

Astronomy

Jul. 11, 2012 Rise Set
Actual Time 5:56 AM PDT 8:30 PM PDT
Civil Twilight 5:26 AM PDT 9:00 PM PDT
Nautical Twilight 4:48 AM PDT 9:38 PM PDT
Astronomical Twilight 4:06 AM PDT 10:20 PM PDT
Moon 12:29 AM PDT (7/11) 2:13 PM PDT (7/11)
Length of Visible Light 15h 34m
Length of Day
14h 33m
Last Quarter, 43% of the Moon is Illuminated
Jul 11
Last Quarter
Jul 18
New
Jul 26
First Quarter
Aug 1
Full
Aug 9
Last Quarter

Hourly Weather History & Observations

Time (PDT) Temp. Heat Index Dew Point Humidity Pressure Visibility Wind Dir Wind Speed Gust Speed Precip Events Conditions
12:56 AM 63.0 °F - 55.0 °F 75% 29.88 in 10.0 mi Calm Calm - N/A   Clear
1:56 AM 61.0 °F - 55.9 °F 83% 29.88 in 10.0 mi Calm Calm - N/A   Clear
2:56 AM 61.0 °F - 55.0 °F 81% 29.88 in 10.0 mi Calm Calm - N/A   Clear
3:56 AM 60.1 °F - 55.0 °F 83% 29.87 in 10.0 mi Calm Calm - N/A   Clear
4:56 AM 59.0 °F - 54.0 °F 83% 29.88 in 10.0 mi Calm Calm - N/A   Clear
5:49 AM 57.2 °F - 53.6 °F 88% 29.88 in 10.0 mi WNW 3.5 mph - N/A   Partly Cloudy
5:56 AM 57.9 °F - 54.0 °F 87% 29.88 in 9.0 mi West 4.6 mph - N/A   Partly Cloudy
6:56 AM 59.0 °F - 54.0 °F 83% 29.89 in 8.0 mi Calm Calm - N/A   Clear
7:43 AM 60.8 °F - 55.4 °F 82% 29.89 in 7.0 mi Calm Calm - N/A   Partly Cloudy
7:56 AM 61.0 °F - 55.9 °F 83% 29.90 in 7.0 mi Calm Calm - N/A   Clear
8:56 AM 64.0 °F - 57.0 °F 78% 29.91 in 9.0 mi North 4.6 mph - N/A   Clear
9:56 AM 66.0 °F - 57.0 °F 73% 29.91 in 10.0 mi North 5.8 mph - N/A   Clear
10:56 AM 70.0 °F - 57.9 °F 65% 29.90 in 9.0 mi NNW 5.8 mph - N/A   Clear
11:56 AM 75.0 °F - 57.0 °F 53% 29.89 in 10.0 mi North 9.2 mph - N/A   Clear
12:56 PM 78.1 °F - 55.9 °F 46% 29.88 in 10.0 mi North 8.1 mph - N/A   Clear
1:56 PM 78.1 °F - 55.9 °F 46% 29.87 in 10.0 mi NNW 9.2 mph - N/A   Clear
2:56 PM 80.1 °F 80.7 °F 59.0 °F 48% 29.85 in 10.0 mi NNW 10.4 mph - N/A   Clear
3:56 PM 80.1 °F 80.4 °F 57.0 °F 45% 29.83 in 10.0 mi NNW 10.4 mph - N/A   Clear
4:56 PM 81.0 °F 80.7 °F 55.0 °F 41% 29.82 in 10.0 mi North 11.5 mph - N/A   Clear
5:56 PM 81.0 °F 80.8 °F 55.9 °F 42% 29.81 in 10.0 mi North 9.2 mph - N/A   Clear
6:56 PM 75.9 °F - 57.9 °F 54% 29.81 in 10.0 mi NW 9.2 mph - N/A   Clear
7:56 PM 71.1 °F - 55.9 °F 59% 29.81 in 10.0 mi NW 8.1 mph - N/A   Clear
8:56 PM 66.9 °F - 57.0 °F 70% 29.83 in 10.0 mi NW 5.8 mph - N/A   Clear
9:56 PM 64.0 °F - 55.0 °F 73% 29.86 in 10.0 mi NW 3.5 mph - N/A   Clear
10:56 PM 64.0 °F - 55.9 °F 75% 29.87 in 10.0 mi NNW 4.6 mph - N/A   Clear
11:56 PM 64.0 °F - 57.0 °F 78% 29.86 in 10.0 mi Calm Calm - N/A   Clear